Regional Weather Roundup
Issued by NWS Grand Forks, ND

Home | Current Version | Previous Version | Text Only | Print | Product List | Glossary On
Versions: 1 2 3 4 5 6 7 8 9 10 11 12 13 14 15 16 17 18 19 20 21 22 23 24 25 26 27 28 29 30 31 32 33 34 35 36 37 38 39 40 41 42 43 44 45 46 47 48 49 50
000
ASUS43 KFGF 260431
RWRFGF
PRAIRIE TO PINES  WEATHER ROUNDUP
NATIONAL WEATHER SERVICE EASTERN NORTH DAKOTA/GRAND FORKS ND
1100 PM CDT SAT OCT 25 2014

 **SATELLITE DATA USED TO AUGMENT SKY COVER AT AUTOMATED STATIONS**
 *****  WEATHER ACROSS EASTERN NORTH DAKOTA  *****

CITY           SKY/WX    TMP DP  RH WIND       PRES   REMARKS
GRAND FORKS    CLEAR     35  25  66 SW5       29.99F
GRAND FRKS AFB CLEAR     37  24  59 SW5       29.99F
GRAND FRKS NWS   N/A     36 N/A N/A W5          N/A
DEVILS LAKE    CLEAR     37  28  70 SE3       29.95F
FARGO          CLEAR     39  24  55 S3        30.02F
WAHPETON ARPT  CLEAR     36  21  55 SE3       30.03S
$$

 ***** WEATHER ACROSS CENTRAL AND WESTERN NORTH DAKOTA  *****

CITY           SKY/WX    TMP DP  RH WIND       PRES   REMARKS
BISMARCK       CLEAR     41  30  65 SE6       29.94F
MINOT          PTCLDY    38  29  70 E8        29.90F
JAMESTOWN      CLEAR     41  29  62 SE7       29.99F
MINOT AFB      PTCLDY    37  32  81 SE8       29.89F
GARRISON         N/A     49  32  52 SE8       29.90F
WILLISTON      MOCLDY    54  31  41 SE12      29.80F
DICKINSON      CLEAR     50  30  46 SE16      29.81F
HETTINGER      CLEAR     50  29  44 SE14      29.86F
$$

 *****  OTHER AIRPORT OBSERVATIONS IN OUR AREA  *****

CITY           SKY/WX    TMP DP  RH WIND       PRES   REMARKS
WALHALLA       FAIR      41  23  48 W3        29.97F
GRAFTON AIRPOR FAIR      37  28  70 W7        29.97F
VALLEY CITY AR FAIR      37  28  70 S3        30.00F HAZE
CANDO          FAIR      34  30  86 SE7       29.96F
CAVALIER APRT  FAIR      41  25  52 W3        29.97F
GWINNER        CLEAR     45  32  61 SE6       30.02F
ROLLA          FAIR      39  23  52 SW3       29.96F
 ***** THE ABOVE OBSERVATIONS ARE NON NWS ARE NOT QUALITY
       CONTROLLED AND MAY MIS-REPORT RAIN FOR SNOW...
$$

  *****  WEATHER ACROSS NORTHERN MINNESOTA  *****

CITY           SKY/WX    TMP DP  RH WIND       PRES   REMARKS
FLAG ISLAND    CLEAR     45  30  57 NW6       29.94S
WARROAD        CLEAR     39  27  60 W6        29.97S
ROSEAU         PTCLDY    41  27  56 SW5       29.97S
HALLOCK        MOCLDY    37  19  48 S3        29.97S
THF RVR FALLS  PTCLDY    37  25  60 CALM      29.99F
BAUDETTE       PTCLDY    39  25  57 CALM      29.96S
WASKISH        PTCLDY    45  36  70 CALM      29.98S
CROOKSTON      CLEAR     36  25  64 S3        30.01S
STEPHEN NDAWN    N/A     37  19  48 SW5         N/A
GREENBUSH NDAW   N/A     37  27  65 SW3         N/A
$$
  *****  WEATHER ACROSS CENTRAL AND WEST MINNESOTA  *****

CITY           SKY/WX    TMP DP  RH WIND       PRES   REMARKS
FOSSTON        CLEAR     30  23  74 S6        30.01S WCI  24
BEMIDJI        PTCLDY    37  24  60 CALM      30.00S
PARK RAPIDS    CLEAR     36  24  62 CALM      30.02S
ELBOW LAKE     FAIR      43  31  63 SE5       30.04S
WADENA         CLEAR     37  28  70 SW3       30.03F
DETROIT LAKES  CLEAR     41  32  70 SW5       30.04S
MOORHEAD       CLEAR     37  25  60 SE3       30.03S
FERGUS FALLS   CLEAR     39  28  65 E5        30.05F
MORRIS MN      CLEAR     41  27  56 E3        30.04S
STAPLES        CLEAR     37  27  65 CALM      30.04R
$$
  *****  WEATHER ELSEWHERE ACROSS MINNESOTA  *****

CITY           SKY/WX    TMP DP  RH WIND       PRES   REMARKS
DULUTH         CLEAR     40  26  57 W7        29.97S
INTRNTL FALLS  CLEAR     28  23  81 SW6       29.95S WCI  22
ELY            CLEAR     43  27  52 W5        29.95R
CLOQUET        CLEAR     41  25  52 W7        29.99S
WHEATON        CLEAR     34  25  69 SE5       30.05F
BRAINERD       CLEAR     37  27  67 SW5       30.04R
HIBBING        CLEAR     32  25  75 CALM      29.97S
ALEXANDRIA     CLEAR     40  30  67 CALM      30.06S
SAINT CLOUD    CLEAR     42  28  57 CALM      30.05S
MINNEAPOLIS    CLEAR     47  28  47 W3        30.05S
$$

  *****  WEATHER ACROSS SOUTH DAKOTA  *****

CITY           SKY/WX    TMP DP  RH WIND       PRES   REMARKS
SIOUX FALLS    CLEAR     45  35  68 NE5       30.04F
BROOKINGS      NOT AVBL
WATERTOWN      CLEAR     45  30  55 SE3       30.03F
HURON          CLEAR     47  32  56 SE9       30.02F
SISSETON         N/A     37  28  70 SW3       30.03F
ABERDEEN       CLEAR     38  29  70 SE7       30.02F
MITCHELL       CLEAR     47  35  63 SE7       30.02F
PIERRE         CLEAR     47  34  60 E9        29.94F
MOBRIDGE       CLEAR     50  34  54 SE13      29.93F
RAPID CITY     CLEAR     45  36  70 SE8       29.87F
$$

  *****  SOME WEATHER IN NEARBY STATES *****

CITY           SKY/WX    TMP DP  RH WIND       PRES   REMARKS
GLASGOW MT     MOCLDY    53  31  42 E17       29.65F
GREAT FALLS MT PTCLDY    50  40  68 SW10      29.60F
CHEYENNE WY    PTCLDY    52  23  32 W6        30.05F
SCOTTSBLUFF NE CLEAR     50  38  63 E9        29.95F
OMAHA NE       CLEAR     60  38  43 E7        30.03F
DES MOINES IA  CLEAR     54  39  57 CALM      30.07S
DAVENPORT IA   CLEAR     42  35  76 NW5       30.04S
CHICAGO IL     CLEAR     53  30  41 NW7       29.97R
EAU CLAIRE WI  CLEAR     45  27  49 W3        30.01R
LA CROSSE WI   CLEAR     45  37  73 CALM      30.02S
$$

  *****  SOME NATIONAL WEATHER *****

CITY           SKY/WX    TMP DP  RH WIND       PRES   REMARKS
LA GUARDIA NY  PTCLDY    62  45  53 SW14G21   29.56F
RALEIGH NC     CLEAR     54  43  66 SW3       29.87F
ATLANTA GA     CLEAR     62  51  67 W8        30.04F
NEW ORLEANS LA CLEAR     67  57  70 NW7       30.09S
OKLAHOMA CITY  CLEAR     67  56  67 S7        30.01F
ALBUQUERQUE NM CLEAR     64  35  34 VRB3      30.18S
SALT LAKE CITY PTCLDY    71  38  29 S23G38    29.88R
LOS ANGELES CA PTCLDY    68  62  81 W10       30.00S
BOISE ID       PTCLDY    61  30  31 W7        29.81R
SEATTLE WA     CLOUDY    54  46  76 SW31G45   29.58R
$$

*** WEATHER ACROSS MANITOBA...SASKATCHEWAN AND ONTARIO ***
                ***ONTARIO***

CITY           SKY/WX    TMP DP  RH WIND       PRES   REMARKS
GERALDTON      MOCLDY    41  30  65 NW14G20   29.73R
THUNDER BAY    CLEAR     46  28  49 NW14      29.85R
SIOUX LOOKOUT  CLEAR     39  30  70 NW8       29.89S
TORONTO        PTCLDY    46  39  76 W9        29.64S
BIG TROUT LK   CLOUDY    37  32  81 W13G21    29.72R
PICKLE LAKE    NOT AVBL
DRYDEN         CLEAR     37  28  70 W6        29.91R
KENORA         CLEAR     41  28  60 NW6       29.94R
$$
                *** MANITOBA***

CITY           SKY/WX    TMP DP  RH WIND       PRES   REMARKS
BRANDON        PTCLDY    34  23  64 N3        29.95S
DAUPHIN        CLEAR     32  25  74 W3        29.94S
ISLAND LAKE    CLOUDY    39  30  70 W13G24    29.85S
PILOT MOUND      N/A     34  19  55 S5          N/A
THE PAS        PTCLDY    30  27  86 CALM      29.93F
THOMPSON       PTCLDY    34  30  86 W8        29.85R
WINNIPEG       CLEAR     34  23  64 W3        29.95F
LYNN LAKE      CLOUDY    34  30  86 NW8       29.85F
CHURCHILL      FLURRIES  32  32 100 NW20G31   29.68  WCI  20
GILLAM         CLOUDY    37  34  87 NW18      29.74S
$$
                ***SASKATCHEWAN***

CITY           SKY/WX    TMP DP  RH WIND       PRES   REMARKS
ESTEVAN        PTCLDY    41  30  65 E12       29.84F
KINDERSLEY     CLOUDY    43  32  65 E24G32    29.61F
LLOYDMINSTER   CLOUDY    41  25  52 E20G28    29.65F
PRINCE ALBERT  PTCLDY    36  28  75 SE10      29.85F
REGINA         MOCLDY    46  28  49 E17       29.79F
YORKTON        PTCLDY    34  27  75 SE3       29.90F
N. BATTLEFORD  MOCLDY    41  28  60 E16G24    29.73F
LA RONGE       CLOUDY    30  25  80 E2        29.89F
SASKATOON      PTCLDY    41  27  56 E13       29.79F
SWIFT CURRENT  CLEAR     48  32  53 SE20      29.63F
$$
NOTE: THESE ARE AUTOMATED STATIONS WITH LIMITED QUALITY CONTROL
      "FAIR" INDICATES FEW OR NO CLOUDS BELOW 12,000 FEET WITH NO
      SIGNIFICANT WEATHER AND/OR OBSTRUCTIONS TO VISIBILITY.
      SKY/WX - SKY CONDITION AND SIGNIFICANT WEATHER.
      TMP - AIR TEMPERATURE.    DP   - DEWPOINT TEMPERATURE.
      RH  - RELATIVE HUMIDITY.  PRES - PRESSURE.
      HX  - HEAT INDEX.         WCI  - WIND CHILL INDEX.
$



USA.gov is the U.S. government's official web portal to all federal, state and local government web resources and services.